Malaga, Spain

12:39 AM CET on December 09, 2016 (GMT +0100)
Malaga

Weather History for LEMG - September, 2012

Change the Weather History Date:

Thursday, September 6, 2012

  Actual Average Record
Temperature  
Mean Temperature 76 °F -  
Max Temperature 84 °F 78 °F 94 °F (2014)
Min Temperature 68 °F 62 °F 62 °F (2000)
Cooling Degree Days 11    
Growing Degree Days 26 (Base 50)    
Moisture  
Dew Point 63 °F    
Average Humidity 67    
Maximum Humidity 83    
Minimum Humidity 51    
Precipitation  
Precipitation 0.00 in 0.03 in - ()
Sea Level Pressure  
Sea Level Pressure 30.03 in    
Wind  
Wind Speed 4 mph ()    
Max Wind Speed 12 mph    
Max Gust Speed -    
Visibility 9.1 miles    
Events      
Averages and records for this station are not official NWS values.
T = Trace of Precipitation, MM = Missing Value Source: Averaged Metar Reports

Daily Weather History Graph

Daily Weather History Graph

Search for Another Location

Airport or City:

Trip Planner

Search our weather history database for the weather conditions in past years. The results will help you decide how hot, cold, wet, or windy it might be!

Date:

Astronomy

Sep. 06, 2012 Rise Set
Actual Time 7:53 AM CEST 8:38 PM CEST
Civil Twilight 7:27 AM CEST 9:04 PM CEST
Nautical Twilight 6:56 AM CEST 9:35 PM CEST
Astronomical Twilight 6:24 AM CEST 10:07 PM CEST
Moon 11:49 PM CEST (9/6) 1:29 PM CEST (9/6)
Length of Visible Light 13h 37m
Length of Day
12h 45m
Waning Gibbous, 70% of the Moon is Illuminated
Sep 6
Waning Gibbous
Sep 8
Last Quarter
Sep 16
New
Sep 22
First Quarter
Sep 30
Full

Hourly Weather History & Observations

Time (CEST) Temp. Heat Index Dew Point Humidity Pressure Visibility Wind Dir Wind Speed Gust Speed Precip Events Conditions
12:00 AM 73.4 °F - 68.0 °F 83% 30.04 in 6.2 mi Variable 1.2 mph - N/A   Partly Cloudy
12:30 AM 73.4 °F - 66.2 °F 78% 30.04 in 6.2 mi Calm Calm - N/A   Partly Cloudy
1:00 AM 73.4 °F - 66.2 °F 78% 30.04 in 6.2 mi Calm Calm - N/A   Partly Cloudy
1:30 AM 73.4 °F - 66.2 °F 78% 30.04 in 6.2 mi Calm Calm - N/A   Partly Cloudy
2:00 AM 73 °F - 66 °F 73% 30.04 in 12 mi Calm Calm - -   Scattered Clouds
2:00 AM 73.4 °F - 66.2 °F 78% 30.04 in 6.2 mi Calm Calm - N/A   Partly Cloudy
2:30 AM 73.4 °F - 66.2 °F 78% 30.04 in 6.2 mi Variable 1.2 mph - N/A   Partly Cloudy
3:00 AM 73.4 °F - 66.2 °F 78% 30.01 in 6.2 mi Calm Calm - N/A   Partly Cloudy
3:30 AM 71.6 °F - 66.2 °F 83% 30.01 in - Variable 1.2 mph - N/A   Clear
4:00 AM 69.8 °F - 64.4 °F 83% 30.01 in - WNW 3.5 mph - N/A   Clear
4:30 AM 69.8 °F - 64.4 °F 83% 29.98 in - West 8.1 mph - N/A   Clear
5:00 AM 69.8 °F - 64.4 °F 83% 29.98 in - WNW 8.1 mph - N/A   Clear
5:30 AM 69.8 °F - 64.4 °F 83% 29.98 in - WNW 9.2 mph - N/A   Clear
6:00 AM 71.6 °F - 62.6 °F 73% 29.98 in - WNW 3.5 mph - N/A   Clear
6:30 AM 69.8 °F - 62.6 °F 78% 29.98 in - NW 5.8 mph - N/A   Clear
7:00 AM 68.0 °F - 62.6 °F 83% 29.98 in - WNW 6.9 mph - N/A   Clear
7:30 AM 68.0 °F - 62.6 °F 83% 30.01 in - West 4.6 mph - N/A   Clear
8:00 AM 71 °F - 63 °F 69% 30.01 in 19 mi WNW 2.3 mph - -  
8:00 AM 68.0 °F - 62.6 °F 83% 30.01 in - West 3.5 mph - N/A   Clear
8:30 AM 68.0 °F - 62.6 °F 83% 30.01 in - Calm Calm - N/A   Clear
9:00 AM 71.6 °F - 62.6 °F 73% 30.04 in - NW 1.2 mph - N/A   Clear
9:30 AM 71.6 °F - 62.6 °F 73% 30.04 in - WNW 1.2 mph - N/A   Clear
10:00 AM 77.0 °F - 60.8 °F 57% 30.04 in - East 1.2 mph - N/A   Clear
10:30 AM 78.8 °F - 59.0 °F 51% 30.04 in - ESE 4.6 mph - N/A   Clear
11:00 AM 78.8 °F - 60.8 °F 54% 30.04 in - SE 6.9 mph - N/A   Clear
11:30 AM 78.8 °F - 59.0 °F 51% 30.04 in - SE 6.9 mph - N/A   Clear
12:00 PM 78.8 °F - 59.0 °F 51% 30.06 in - SE 8.1 mph - N/A   Clear
12:30 PM 77.0 °F - 59.0 °F 54% 30.06 in - SE 9.2 mph - N/A   Clear
1:00 PM 78.8 °F - 60.8 °F 54% 30.06 in - SE 11.5 mph - N/A   Clear
1:30 PM 78.8 °F - 62.6 °F 57% 30.04 in - SE 9.2 mph - N/A   Clear
2:00 PM 81 °F - 66 °F 51% 30.06 in 19 mi SE 6.9 mph - -   Scattered Clouds
2:00 PM 78.8 °F - 62.6 °F 57% 30.04 in - SE 6.9 mph - N/A   Clear
2:30 PM 78.8 °F - 60.8 °F 54% 30.04 in - South 9.2 mph - N/A   Clear
3:00 PM 80.6 °F 81.5 °F 60.8 °F 51% 30.04 in - SSE 9.2 mph - N/A   Clear
3:30 PM 80.6 °F 81.8 °F 62.6 °F 54% 30.04 in - South 9.2 mph - N/A   Clear
4:00 PM 80.6 °F 81.8 °F 62.6 °F 54% 30.04 in - SSE 9.2 mph - N/A   Clear
4:30 PM 82.4 °F 83.4 °F 62.6 °F 51% 30.04 in - SSE 8.1 mph - N/A   Clear
5:00 PM 80.6 °F 81.8 °F 62.6 °F 54% 30.01 in - SE 6.9 mph - N/A   Clear
5:30 PM 80.6 °F 81.8 °F 62.6 °F 54% 30.01 in - SSE 8.1 mph - N/A   Clear
6:00 PM 78.8 °F - 62.6 °F 57% 30.01 in - SE 9.2 mph - N/A   Clear
6:30 PM 78.8 °F - 64.4 °F 61% 30.01 in - SE 6.9 mph - N/A   Clear
7:00 PM 78.8 °F - 64.4 °F 61% 30.01 in - SSE 6.9 mph - N/A   Clear
7:30 PM 77.0 °F - 64.4 °F 65% 30.01 in - SSE 4.6 mph - N/A   Clear
8:00 PM 79 °F - 65 °F 54% 30.01 in 12 mi SE 4.6 mph - -   Clear
8:00 PM 77.0 °F - 62.6 °F 61% 30.01 in - SE 4.6 mph - N/A   Clear
8:30 PM 77.0 °F - 64.4 °F 65% 30.01 in - SSE 5.8 mph - N/A   Clear
9:00 PM 77.0 °F - 62.6 °F 61% 30.01 in - SSE 6.9 mph - N/A   Clear
9:30 PM 77.0 °F - 62.6 °F 61% 30.04 in - SE 4.6 mph - N/A   Clear
10:00 PM 75.2 °F - 62.6 °F 65% 30.06 in - SE 3.5 mph - N/A   Clear
10:30 PM 75.2 °F - 64.4 °F 69% 30.06 in - SE 3.5 mph - N/A   Clear
11:00 PM 75.2 °F - 64.4 °F 69% 30.09 in 6.2 mi SE 4.6 mph - N/A   Partly Cloudy
11:30 PM 75.2 °F - 64.4 °F 69% 30.09 in 6.2 mi South 4.6 mph - N/A   Scattered Clouds